{"data":{"norad_id":59556,"intl_designator":"2024-074Y","name":"STARLINK-31718","alt_names":[],"object_type":"PAYLOAD","status":"ACTIVE","operator":null,"country":"US","launch_date":"2024-04-18","launch_site_code":"AFETR","launch_vehicle":null,"mission":null,"orbit_class":"UNKNOWN","rcs_meters":null,"size_class":null,"mass_kg":null,"dimensions":null,"purposes":["comms"],"wikipedia_slug":null,"has_3d_model":false,"image_url":null,"decayed_at":null,"tle_current":{"epoch":"2026-09-21T04:57:57.026592Z","epoch_age_seconds":107194,"freshness":"FRESH","line1":"1 59556U 24074Y   26264.20691003  .00000781  00000+0  37894-4 0  9998","line2":"2 59556  43.0038 319.5576 0001263 272.0604  88.0103 15.27574908135916","mean_motion":15.27574908,"eccentricity":0.0001263,"inclination_deg":43.0038,"raan_deg":319.5576,"arg_perigee_deg":272.0604,"mean_anomaly_deg":88.0103,"bstar":3.7894e-5,"rev_number":13591,"period_min":94.267062941309,"perigee_km":482.19777363218,"apogee_km":483.93091309151,"semimajor_km":6861.2013433618,"source":"CELESTRAK","updated_at":"2026-09-22T09:00:48.976653Z"}}}